Kalispell, MT

7:43 AM MST on December 15, 2017 (GMT -0700)
Glacier Park International

Weather History for KGPI - February, 2013

Change the Weather History Date:

Monday, February 25, 2013

  Actual Average Record
Temperature  
Mean Temperature 37 °F 29 °F  
Max Temperature 43 °F 39 °F 53 °F (1921)
Min Temperature 31 °F 19 °F -13 °F (1922)
Degree Days  
Heating Degree Days 28 36  
Month to date heating degree days 820 953  
Since 1 July heating degree days 5193 5744  
Cooling Degree Days 0 0  
Month to date cooling degree days 0 0  
Year to date cooling degree days 0 0  
Moisture  
Dew Point 24 °F    
Average Humidity 61    
Maximum Humidity 72    
Minimum Humidity 49    
Precipitation  
Precipitation T in 0.04 in 0.44 in (1940)
Month to date precipitation 0.18 0.86  
Year to date precipitation 1.05 2.19  
Snow  
Snow T in - - ()
Month to date snowfall 1.3  
Year to date snowfall 7.3  
Since 1 July snowfall 16.1  
Snow Depth 0.00 in    
Sea Level Pressure  
Sea Level Pressure 29.95 in    
Wind  
Wind Speed 8 mph (South)    
Max Wind Speed 22 mph    
Max Gust Speed 78 mph    
Visibility 10 miles    
Events Snow    
T = Trace of Precipitation, MM = Missing Value Source: NWS Daily Summary

Daily Weather History Graph

Daily Weather History Graph

Search for Another Location

Airport or City:

Trip Planner

Search our weather history database for the weather conditions in past years. The results will help you decide how hot, cold, wet, or windy it might be!

Date:

Astronomy

Feb. 25, 2013 Rise Set
Actual Time 7:25 AM MST 6:15 PM MST
Civil Twilight 6:53 AM MST 6:46 PM MST
Nautical Twilight 6:17 AM MST 7:23 PM MST
Astronomical Twilight 5:41 AM MST 7:59 PM MST
Moon 6:38 PM MST (2/25) 6:54 AM MST (2/25)
Length of Visible Light 11h 53m
Length of Day
10h 50m
Full, 100% of the Moon is Illuminated
Feb 25
Full
Feb 25
Full
Mar 4
Last Quarter
Mar 11
New
Mar 19
First Quarter

Hourly Weather History & Observations

Time (MST) Temp. Windchill Dew Point Humidity Pressure Visibility Wind Dir Wind Speed Gust Speed Precip Events Conditions
12:55 AM 32.0 °F 28.7 °F 24.1 °F 73% 30.13 in 10.0 mi South 3.5 mph - N/A   Overcast
1:55 AM 32.0 °F 28.7 °F 24.1 °F 73% 30.11 in 10.0 mi SSE 3.5 mph - N/A   Overcast
2:55 AM 32.0 °F 24.2 °F 23.0 °F 69% 30.07 in 10.0 mi SSE 9.2 mph 24.2 mph N/A   Overcast
3:55 AM 32.0 °F 26.4 °F 23.0 °F 69% 30.04 in 10.0 mi SSE 5.8 mph - N/A   Overcast
4:55 AM 32.0 °F 27.5 °F 23.0 °F 69% 30.02 in 10.0 mi South 4.6 mph - N/A   Overcast
5:55 AM 32.0 °F 24.8 °F 21.9 °F 66% 30.00 in 10.0 mi South 8.1 mph - N/A   Overcast
6:55 AM 32.0 °F 25.6 °F 21.0 °F 64% 29.96 in 10.0 mi South 6.9 mph - N/A   Overcast
7:55 AM 32.0 °F - 21.9 °F 66% 29.94 in 10.0 mi Calm Calm - N/A   Overcast
8:55 AM 32.0 °F 27.5 °F 23.0 °F 69% 29.93 in 10.0 mi West 4.6 mph - N/A   Overcast
9:55 AM 34.0 °F 28.8 °F 23.0 °F 64% 29.90 in 10.0 mi South 5.8 mph - N/A   Overcast
10:55 AM 34.0 °F 27.2 °F 24.1 °F 67% 29.89 in 8.0 mi South 8.1 mph - 0.00 in Snow Light Snow
11:55 AM 36.0 °F 27.5 °F 24.1 °F 62% 29.88 in 10.0 mi South 12.7 mph 19.6 mph 0.00 in   Overcast
12:55 PM 36.0 °F 27.5 °F 26.1 °F 67% 29.88 in 10.0 mi SSE 12.7 mph - N/A   Overcast
1:55 PM 37.0 °F 29.3 °F 26.1 °F 65% 29.87 in 10.0 mi South 11.5 mph - N/A   Overcast
2:55 PM 37.0 °F 29.3 °F 27.0 °F 67% 29.86 in 10.0 mi SSE 11.5 mph - N/A   Overcast
3:55 PM 42.1 °F 37.7 °F 25.0 °F 51% 29.86 in 10.0 mi SSW 6.9 mph - N/A   Overcast
4:55 PM 37.9 °F 28.2 °F 25.0 °F 60% 29.88 in 10.0 mi SW 18.4 mph 25.3 mph N/A   Scattered Clouds
5:55 PM 34.0 °F 29.8 °F 24.1 °F 67% 29.91 in 10.0 mi SW 4.6 mph - N/A   Mostly Cloudy
6:55 PM 35.1 °F 27.9 °F 24.1 °F 64% 29.92 in 10.0 mi SSW 9.2 mph - N/A   Overcast
7:55 PM 34.0 °F 26.0 °F 24.1 °F 67% 29.93 in 10.0 mi SW 10.4 mph - N/A   Mostly Cloudy
8:55 PM 32.0 °F 25.6 °F 24.1 °F 73% 29.96 in 10.0 mi South 6.9 mph - N/A   Overcast
9:55 PM 34.0 °F 28.8 °F 24.1 °F 67% 29.97 in 10.0 mi South 5.8 mph - N/A   Overcast
10:55 PM 34.0 °F 26.6 °F 25.0 °F 70% 29.99 in 10.0 mi SW 9.2 mph - N/A   Overcast
11:55 PM 34.0 °F - 25.0 °F 70% 30.01 in 10.0 mi Calm Calm - N/A   Overcast